星链-36322(STARLINK-36322)

导读

STARLINK-36322(NORAD编号68522)是SpaceX星链(Starlink)卫星互联网星座中的一颗低轨通信卫星,属于星链第二代迷你卫星(V2.0 mini)批次。 作为星链全球宽带互联网网络的组成部分,该卫星配备相控阵天线与激光星间链路,可实现星间高速数据转发,单链路带宽可达100Gbps,能同时为多地面用户提供低延迟互联网服务,支持通信定位融合功能。 2026年SpaceX将包括该卫星在内的四千余颗星链卫星轨道高度从550公里降至480公里,降低故障卫星轨道衰减时间,提升太空运行安全性,减少空间碎片风险。

基本信息
目录编号:
68522
目录名称:
STARLINK-36322
国际标识:
2026-068Q
轨道中心:
EARTH
卫星名称:
星链-36322
卫星全名:
星链-36322(STARLINK-36322)
卫星状态:
在轨 (已飞行75 天)
发射日期:
2026-03-30 UTC
国别 :
美国 (US)
星等 :
--
轨道信息
数据来源 国际轨道数据
星历时间: 2026-06-13T03:32:53+0800
4小时前
查看轨道信息
半长轴: 6840.761km
偏心率: 0.000108
轨道倾角: 53.160°
近地点辐角 104.836°
升交点赤经 45.669°
平近点角 255.276°
近地点: 461.885km
远地点: 463.363km
周期: 93.846分钟
每日圈数: 15.344269
详细信息
固有亮度:
5
最大亮度:
2.5
卫星平台:
Starlink V1.0
覆盖范围:
全球
运营商:
太空探索技术公司
运营商所在国:
美国
制造商(研发单位):
太空探索技术公司
制造商所在国:
美国
使用方式:
暂无
卫星简介
Starlink 计划是 SpaceX 推出的全球卫星互联网项目,通过发射低轨道卫星,为全球尤其是偏远地区提供高速、低延迟的互联网服务。自 2019 年起,Starlink 已部署数千颗卫星,旨在缩小全球数字鸿沟,推动互联网普及。该项目还为军事、航空等行业提供通信支持,带来广泛经济效益。
2D轨道图
3D轨道图
轨道高度分析图
轨道倾角分析图
轨道综合分析图
查看轨道综合分析图